N98CK KBHM-KMSN

Flight info

Callsign N98CK
Flight time 1h 27m
Altitude 43000
Route RHETT DCU PXV MTO PNT JVL MSN
Aircraft C750/M-VGD/C

Departure

Time 2026-05-05 21:48
Airport Birmingham-Shuttlesworth International Airport (KBHM)

Arrival

Time 2026-05-05 23:15
Airport Dane County Regional Truax Field (KMSN)
Time Latitude Longitude Altitude Speed Heading
2026-05-05 21:10 33.56619 -86.74271 640 ft 0 kts
2026-05-05 21:40 33.56610 -86.74271 640 ft 3 kts
2026-05-05 21:40 33.56605 -86.74271 640 ft 0 kts
2026-05-05 21:41 33.56607 -86.74272 640 ft 0 kts 351°
2026-05-05 21:41 33.56614 -86.74277 640 ft 2 kts 319°
2026-05-05 21:42 33.56613 -86.74301 640 ft 3 kts 244°
2026-05-05 21:42 33.56599 -86.74347 640 ft 8 kts 283°
2026-05-05 21:42 33.56632 -86.74389 640 ft 6 kts 308°
2026-05-05 21:42 33.56641 -86.74437 640 ft 6 kts 270°
2026-05-05 21:43 33.56640 -86.74487 640 ft 6 kts 270°
2026-05-05 21:43 33.56640 -86.74534 640 ft 5 kts 271°
2026-05-05 21:43 33.56643 -86.74559 641 ft 2 kts 281°
2026-05-05 21:43 33.56661 -86.74587 642 ft 8 kts 335°
2026-05-05 21:44 33.56722 -86.74589 644 ft 8 kts
2026-05-05 21:44 33.56779 -86.74556 646 ft 13 kts 56°
2026-05-05 21:44 33.56848 -86.74436 645 ft 22 kts 54°
2026-05-05 21:44 33.56935 -86.74284 643 ft 22 kts 56°
2026-05-05 21:45 33.57019 -86.74138 642 ft 21 kts 55°
2026-05-05 21:45 33.57102 -86.73995 643 ft 20 kts 54°
2026-05-05 21:45 33.57172 -86.73872 645 ft 17 kts 57°
2026-05-05 21:45 33.57250 -86.73846 646 ft 9 kts 327°
2026-05-05 21:46 33.57264 -86.73857 647 ft 0 kts 324°
2026-05-05 21:46 33.57268 -86.73861 647 ft 3 kts 324°
2026-05-05 21:46 33.57313 -86.73914 651 ft 14 kts 288°
2026-05-05 21:47 33.57270 -86.74055 648 ft 35 kts 235°
2026-05-05 21:47 33.56898 -86.74694 647 ft 142 kts 236°
2026-05-05 21:47 33.56251 -86.75855 814 ft 189 kts 234°
2026-05-05 21:47 33.55458 -86.77325 1173 ft 233 kts 240°
2026-05-05 21:48 33.55217 -86.79413 1548 ft 275 kts 274°
2026-05-05 21:48 33.55761 -86.81676 2124 ft 286 kts 286°
2026-05-05 21:48 33.56405 -86.83803 2691 ft 257 kts 287°
2026-05-05 21:48 33.56993 -86.85741 3028 ft 240 kts 286°
2026-05-05 21:49 33.57631 -86.87494 3452 ft 224 kts 301°
2026-05-05 21:49 33.58875 -86.88537 3750 ft 219 kts 335°
2026-05-05 21:49 33.60428 -86.88850 4352 ft 237 kts
2026-05-05 21:49 33.62074 -86.88331 5145 ft 255 kts 21°
2026-05-05 21:50 33.63758 -86.87480 5944 ft 268 kts 21°
2026-05-05 21:50 33.65526 -86.86634 6733 ft 279 kts 18°
2026-05-05 21:50 33.67398 -86.85798 7501 ft 294 kts 18°
2026-05-05 21:50 33.69339 -86.84919 8259 ft 311 kts 17°
2026-05-05 21:51 33.71354 -86.83978 9017 ft 309 kts 17°
2026-05-05 21:51 33.73371 -86.83039 9777 ft 314 kts 16°
2026-05-05 21:51 33.75439 -86.82092 9982 ft 318 kts 16°
2026-05-05 21:51 33.77491 -86.81145 9990 ft 316 kts 16°
2026-05-05 21:52 33.81660 -86.79223 10332 ft 338 kts 16°
2026-05-05 21:52 33.83946 -86.78176 10516 ft 365 kts 16°
2026-05-05 21:52 33.86368 -86.77048 11071 ft 375 kts 17°
2026-05-05 21:53 33.88791 -86.75911 11971 ft 375 kts 16°
2026-05-05 21:53 33.91238 -86.74782 12739 ft 378 kts 15°
2026-05-05 21:53 33.93704 -86.73648 13558 ft 381 kts 16°
2026-05-05 21:53 33.96189 -86.72494 14294 ft 384 kts 16°
2026-05-05 21:54 33.98690 -86.71329 15022 ft 386 kts 15°
2026-05-05 21:54 34.00359 -86.70554 15477 ft 388 kts 15°
2026-05-05 21:54 34.02894 -86.69424 16159 ft 388 kts 12°
2026-05-05 21:54 34.05527 -86.68868 16870 ft 381 kts 358°
2026-05-05 21:55 34.08153 -86.68963 17702 ft 375 kts 346°
2026-05-05 21:55 34.11465 -86.70032 18691 ft 371 kts 334°
2026-05-05 21:55 34.13898 -86.71132 19345 ft 375 kts 334°
2026-05-05 21:55 34.15560 -86.71869 19790 ft 378 kts 334°
2026-05-05 21:56 34.18054 -86.72970 20435 ft 383 kts 334°
2026-05-05 21:56 34.20538 -86.74075 21136 ft 387 kts 334°
2026-05-05 21:56 34.23076 -86.75215 21817 ft 391 kts 334°
2026-05-05 21:56 34.25642 -86.76362 22501 ft 395 kts 334°
2026-05-05 21:57 34.28241 -86.77520 23175 ft 400 kts 334°
2026-05-05 21:57 34.30862 -86.78691 23803 ft 404 kts 334°
2026-05-05 21:57 34.33503 -86.79873 24477 ft 404 kts 333°
2026-05-05 21:57 34.36142 -86.81054 25173 ft 405 kts 333°
2026-05-05 21:58 34.38790 -86.82240 25847 ft 405 kts 333°
2026-05-05 21:58 34.41443 -86.83430 26504 ft 407 kts 333°
2026-05-05 21:58 34.44100 -86.84622 27162 ft 408 kts 333°
2026-05-05 21:58 34.46765 -86.85818 27797 ft 409 kts 333°
2026-05-05 21:59 34.49408 -86.87006 28438 ft 411 kts 333°
2026-05-05 21:59 34.52094 -86.88214 29079 ft 412 kts 332°
2026-05-05 21:59 34.54789 -86.89426 29684 ft 414 kts 332°
2026-05-05 21:59 34.57502 -86.90647 30224 ft 416 kts 332°
2026-05-05 22:00 34.60218 -86.91870 30743 ft 417 kts 332°
2026-05-05 22:00 34.62938 -86.93093 31385 ft 414 kts 332°
2026-05-05 22:00 34.65693 -86.94117 32141 ft 414 kts 336°
2026-05-05 22:00 34.68516 -86.94830 32882 ft 412 kts 339°
2026-05-05 22:01 34.71306 -86.95489 33620 ft 406 kts 338°
2026-05-05 22:01 34.74058 -86.96165 34292 ft 400 kts 338°
2026-05-05 22:01 34.76781 -86.96834 34857 ft 399 kts 338°
2026-05-05 22:01 34.79504 -86.97488 35431 ft 398 kts 338°
2026-05-05 22:02 34.82219 -86.98137 35981 ft 397 kts 338°
2026-05-05 22:02 34.84892 -86.98783 36543 ft 396 kts 337°
2026-05-05 22:02 34.87592 -86.99439 37124 ft 395 kts 337°
2026-05-05 22:02 34.90285 -87.00091 37735 ft 394 kts 337°
2026-05-05 22:03 34.92968 -87.00739 38328 ft 393 kts 337°
2026-05-05 22:03 34.95649 -87.01388 38891 ft 392 kts 337°
2026-05-05 22:03 34.98321 -87.02037 39354 ft 392 kts 337°
2026-05-05 22:03 35.01000 -87.02688 39808 ft 393 kts 337°
2026-05-05 22:04 35.03685 -87.03340 40257 ft 393 kts 337°
2026-05-05 22:04 35.06365 -87.03989 40718 ft 393 kts 337°
2026-05-05 22:04 35.09050 -87.04642 41146 ft 394 kts 337°
2026-05-05 22:04 35.11742 -87.05298 41581 ft 394 kts 337°
2026-05-05 22:05 35.14435 -87.05953 41967 ft 395 kts 337°
2026-05-05 22:05 35.17138 -87.06611 42388 ft 395 kts 337°
2026-05-05 22:05 35.19843 -87.07269 42791 ft 396 kts 337°
2026-05-05 22:05 35.22520 -87.07926 42918 ft 402 kts 337°
2026-05-05 22:06 35.25295 -87.08611 42905 ft 411 kts 338°
2026-05-05 22:06 35.31025 -87.10004 42925 ft 428 kts 338°
2026-05-05 22:07 35.36960 -87.11457 42898 ft 441 kts 338°
2026-05-05 22:07 35.43039 -87.12942 42889 ft 447 kts 338°
2026-05-05 22:08 35.49160 -87.14444 42883 ft 449 kts 339°
2026-05-05 22:08 35.55249 -87.15940 42888 ft 449 kts 339°
2026-05-05 22:09 35.61376 -87.17448 42875 ft 449 kts 339°
2026-05-05 22:09 35.67506 -87.18959 42877 ft 449 kts 339°
2026-05-05 22:10 35.73648 -87.20477 42884 ft 450 kts 339°
2026-05-05 22:10 35.79799 -87.21998 42882 ft 451 kts 339°
2026-05-05 22:11 35.85954 -87.23522 42880 ft 451 kts 339°
2026-05-05 22:11 35.92106 -87.25049 42877 ft 451 kts 339°
2026-05-05 22:12 35.98265 -87.26580 42862 ft 451 kts 339°
2026-05-05 22:12 36.04393 -87.28104 42874 ft 452 kts 339°
2026-05-05 22:13 36.10562 -87.29642 42872 ft 452 kts 339°
2026-05-05 22:13 36.16730 -87.31182 42872 ft 452 kts 339°
2026-05-05 22:14 36.22911 -87.32730 42869 ft 453 kts 339°
2026-05-05 22:14 36.29083 -87.34274 42871 ft 453 kts 339°
2026-05-05 22:15 36.35258 -87.35824 42873 ft 453 kts 339°
2026-05-05 22:15 36.41394 -87.37365 42882 ft 452 kts 339°
2026-05-05 22:16 36.47578 -87.38924 42888 ft 453 kts 339°
2026-05-05 22:16 36.53768 -87.40482 42888 ft 454 kts 339°
2026-05-05 22:17 36.59978 -87.42054 42871 ft 454 kts 339°
2026-05-05 22:17 36.66153 -87.43612 42863 ft 453 kts 339°
2026-05-05 22:18 36.72353 -87.45186 42851 ft 454 kts 339°
2026-05-05 22:18 36.78515 -87.46747 42850 ft 455 kts 339°
2026-05-05 22:19 36.84723 -87.48327 42834 ft 454 kts 339°
2026-05-05 22:19 36.90932 -87.49907 42851 ft 456 kts 339°
2026-05-05 22:20 36.97155 -87.51495 42850 ft 457 kts 339°
2026-05-05 22:20 37.03397 -87.53089 42843 ft 457 kts 339°
2026-05-05 22:21 37.09637 -87.54687 42833 ft 458 kts 339°
2026-05-05 22:21 37.15898 -87.56290 42839 ft 459 kts 339°
2026-05-05 22:22 37.22164 -87.57900 42830 ft 460 kts 339°
2026-05-05 22:22 37.28400 -87.59504 42835 ft 461 kts 339°
2026-05-05 22:23 37.34689 -87.61124 42837 ft 461 kts 339°
2026-05-05 22:23 37.40993 -87.62751 42838 ft 462 kts 339°
2026-05-05 22:24 37.47299 -87.64382 42837 ft 463 kts 339°
2026-05-05 22:24 37.53610 -87.66015 42834 ft 463 kts 339°
2026-05-05 22:25 37.59933 -87.67657 42851 ft 465 kts 339°
2026-05-05 22:25 37.66267 -87.69301 42846 ft 465 kts 340°
2026-05-05 22:26 37.72598 -87.70948 42838 ft 463 kts 340°
2026-05-05 22:26 37.78927 -87.72604 42852 ft 466 kts 340°
2026-05-05 22:27 37.85284 -87.74261 42852 ft 467 kts 340°
2026-05-05 22:27 37.91556 -87.75899 42833 ft 462 kts 340°
2026-05-05 22:28 37.97793 -87.77885 42838 ft 463 kts 337°
2026-05-05 22:28 38.04048 -87.79949 42841 ft 464 kts 337°
2026-05-05 22:29 38.10295 -87.82025 42833 ft 464 kts 337°
2026-05-05 22:29 38.16548 -87.84105 42839 ft 465 kts 337°
2026-05-05 22:30 38.22815 -87.86191 42842 ft 467 kts 337°
2026-05-05 22:30 38.29109 -87.88292 42851 ft 467 kts 338°
2026-05-05 22:31 38.35418 -87.90401 42853 ft 469 kts 338°
2026-05-05 22:31 38.41684 -87.92499 42854 ft 468 kts 338°
2026-05-05 22:32 38.48018 -87.94625 42875 ft 470 kts 338°
2026-05-05 22:32 38.54347 -87.96751 42877 ft 470 kts 338°
2026-05-05 22:33 38.60684 -87.98886 42880 ft 471 kts 338°
2026-05-05 22:33 38.67027 -88.01024 42897 ft 471 kts 338°
2026-05-05 22:34 38.73386 -88.03175 42890 ft 472 kts 338°
2026-05-05 22:34 38.79746 -88.05327 42889 ft 472 kts 338°
2026-05-05 22:35 38.86066 -88.07472 42894 ft 473 kts 338°
2026-05-05 22:35 38.92428 -88.09633 42886 ft 473 kts 338°
2026-05-05 22:36 38.98792 -88.11801 42884 ft 473 kts 338°
2026-05-05 22:36 39.05160 -88.13972 42893 ft 473 kts 338°
2026-05-05 22:37 39.11525 -88.16148 42899 ft 473 kts 338°
2026-05-05 22:37 39.17891 -88.18326 42892 ft 473 kts 338°
2026-05-05 22:38 39.24257 -88.20511 42889 ft 473 kts 338°
2026-05-05 22:38 39.30624 -88.22698 42884 ft 473 kts 338°
2026-05-05 22:39 39.36948 -88.24877 42882 ft 473 kts 338°
2026-05-05 22:39 39.43325 -88.27076 42879 ft 473 kts 338°
2026-05-05 22:40 39.49704 -88.29275 42868 ft 474 kts 338°
2026-05-05 22:40 39.56134 -88.31330 42840 ft 477 kts 339°
2026-05-05 22:40 39.59278 -88.32353 42843 ft 465 kts 338°
2026-05-05 22:41 39.62451 -88.33416 42840 ft 468 kts 338°
2026-05-05 22:41 39.68795 -88.35500 42874 ft 476 kts 339°
2026-05-05 22:42 39.75245 -88.37610 42883 ft 477 kts 339°
2026-05-05 22:42 39.80605 -88.39385 42875 ft 479 kts 339°
2026-05-05 22:43 39.87078 -88.41511 42878 ft 479 kts 339°
2026-05-05 22:43 39.93543 -88.43652 42874 ft 479 kts 339°
2026-05-05 22:44 39.99971 -88.45777 42869 ft 480 kts 339°
2026-05-05 22:44 40.06446 -88.47927 42867 ft 480 kts 339°
2026-05-05 22:45 40.12925 -88.50080 42874 ft 480 kts 339°
2026-05-05 22:45 40.19401 -88.52237 42890 ft 480 kts 339°
2026-05-05 22:46 40.25880 -88.54399 42899 ft 480 kts 339°
2026-05-05 22:46 40.32356 -88.56564 42899 ft 481 kts 339°
2026-05-05 22:47 40.38838 -88.58736 42893 ft 481 kts 339°
2026-05-05 22:47 40.45327 -88.60914 42888 ft 481 kts 339°
2026-05-05 22:48 40.51815 -88.63097 42891 ft 481 kts 339°
2026-05-05 22:48 40.58301 -88.65282 42894 ft 482 kts 339°
2026-05-05 22:49 40.64751 -88.67461 42893 ft 481 kts 339°
2026-05-05 22:49 40.71213 -88.69643 42910 ft 471 kts 339°
2026-05-05 22:50 40.77642 -88.71835 42919 ft 481 kts 339°
2026-05-05 22:50 40.84156 -88.73792 42891 ft 487 kts 345°
2026-05-05 22:51 40.90869 -88.75161 42905 ft 488 kts 345°
2026-05-05 22:51 40.97584 -88.76588 42903 ft 489 kts 345°
2026-05-05 22:52 41.04330 -88.77985 42904 ft 490 kts 345°
2026-05-05 22:52 41.11075 -88.79412 42907 ft 491 kts 345°
2026-05-05 22:53 41.17822 -88.80824 42909 ft 491 kts 345°
2026-05-05 22:53 41.24542 -88.82245 42900 ft 492 kts 345°
2026-05-05 22:54 41.31308 -88.83673 42908 ft 493 kts 345°
2026-05-05 22:54 41.38060 -88.85100 42909 ft 481 kts 345°
2026-05-05 22:54 41.41284 -88.85771 42882 ft 456 kts 345°
2026-05-05 22:55 41.44351 -88.86420 42545 ft 440 kts 344°
2026-05-05 22:55 41.47369 -88.87077 41555 ft 439 kts 344°
2026-05-05 22:55 41.50392 -88.87731 40566 ft 439 kts 344°
2026-05-05 22:55 41.53404 -88.88363 39645 ft 438 kts 345°
2026-05-05 22:56 41.56409 -88.88996 38708 ft 436 kts 344°
2026-05-05 22:56 41.59403 -88.89639 37511 ft 436 kts 344°
2026-05-05 22:56 41.62362 -88.90277 36183 ft 438 kts 344°
2026-05-05 22:56 41.65378 -88.90922 34790 ft 441 kts 345°
2026-05-05 22:57 41.68434 -88.91572 33259 ft 445 kts 345°
2026-05-05 22:57 41.71516 -88.92231 31516 ft 450 kts 345°
2026-05-05 22:57 41.74622 -88.92899 29684 ft 456 kts 345°
2026-05-05 22:57 41.77759 -88.93569 28230 ft 451 kts 345°
2026-05-05 22:58 41.80813 -88.94214 26994 ft 439 kts 345°
2026-05-05 22:58 41.83807 -88.94858 25716 ft 431 kts 344°
2026-05-05 22:58 41.86743 -88.95497 24503 ft 423 kts 344°
2026-05-05 22:58 41.89632 -88.96120 23294 ft 416 kts 344°
2026-05-05 22:59 41.92470 -88.96728 21952 ft 409 kts 344°
2026-05-05 22:59 41.95249 -88.97326 20701 ft 402 kts 344°
2026-05-05 22:59 41.97985 -88.97919 19484 ft 395 kts 344°
2026-05-05 22:59 42.00680 -88.98503 18316 ft 389 kts 345°
2026-05-05 23:00 42.05932 -88.99637 15905 ft 374 kts 345°
2026-05-05 23:00 42.08449 -89.00181 14783 ft 367 kts 345°
2026-05-05 23:00 42.10943 -89.00724 13694 ft 360 kts 345°
2026-05-05 23:01 42.13398 -89.01257 12519 ft 354 kts 345°
2026-05-05 23:01 42.15792 -89.01775 11729 ft 341 kts 345°
2026-05-05 23:01 42.18070 -89.02263 11228 ft 321 kts 345°
2026-05-05 23:01 42.20217 -89.02730 10740 ft 306 kts 345°
2026-05-05 23:02 42.22275 -89.03182 10251 ft 293 kts 345°
2026-05-05 23:02 42.24256 -89.03616 9757 ft 284 kts 345°
2026-05-05 23:02 42.26192 -89.04039 9132 ft 281 kts 345°
2026-05-05 23:02 42.28119 -89.04461 8507 ft 279 kts 345°
2026-05-05 23:03 42.30025 -89.04877 7898 ft 277 kts 345°
2026-05-05 23:03 42.31923 -89.05291 7324 ft 275 kts 345°
2026-05-05 23:03 42.33800 -89.05700 6888 ft 269 kts 345°
2026-05-05 23:03 42.35627 -89.06098 6916 ft 276 kts 345°
2026-05-05 23:04 42.37555 -89.06528 8001 ft 274 kts 345°
2026-05-05 23:04 42.39432 -89.06928 9383 ft 277 kts 344°
2026-05-05 23:04 42.41373 -89.07362 10229 ft 289 kts 344°
2026-05-05 23:04 42.43439 -89.07827 10637 ft 314 kts 345°
2026-05-05 23:05 42.45694 -89.08323 10882 ft 342 kts 345°
2026-05-05 23:05 42.48070 -89.08833 11490 ft 352 kts 345°
2026-05-05 23:05 42.50370 -89.09310 12202 ft 317 kts 345°
2026-05-05 23:05 42.52515 -89.09781 12262 ft 310 kts 343°
2026-05-05 23:06 42.54622 -89.10269 12271 ft 308 kts 343°
2026-05-05 23:06 42.56711 -89.10867 12267 ft 303 kts 337°
2026-05-05 23:06 42.58731 -89.11680 12390 ft 302 kts 336°
2026-05-05 23:06 42.60748 -89.12499 12399 ft 302 kts 336°
2026-05-05 23:07 42.62737 -89.13400 12401 ft 300 kts 333°
2026-05-05 23:07 42.64672 -89.14444 12412 ft 299 kts 331°
2026-05-05 23:07 42.66614 -89.15473 12412 ft 300 kts 332°
2026-05-05 23:07 42.68567 -89.16432 12080 ft 295 kts 333°
2026-05-05 23:08 42.70547 -89.17413 10624 ft 314 kts 333°
2026-05-05 23:08 42.72549 -89.18428 10111 ft 302 kts 334°
2026-05-05 23:08 42.74442 -89.19367 9903 ft 279 kts 333°
2026-05-05 23:08 42.76253 -89.20284 9176 ft 278 kts 333°
2026-05-05 23:09 42.78058 -89.21207 8524 ft 275 kts 333°
2026-05-05 23:09 42.79841 -89.22105 7908 ft 271 kts 333°
2026-05-05 23:09 42.81600 -89.22990 7266 ft 268 kts 334°
2026-05-05 23:09 42.83341 -89.23870 6643 ft 265 kts 334°
2026-05-05 23:10 42.85079 -89.24752 6240 ft 269 kts 334°
2026-05-05 23:10 42.86818 -89.25632 5883 ft 265 kts 334°
2026-05-05 23:10 42.88547 -89.26505 5495 ft 262 kts 335°
2026-05-05 23:10 42.90230 -89.27357 5101 ft 259 kts 335°
2026-05-05 23:11 42.91918 -89.28214 4722 ft 258 kts 335°
2026-05-05 23:11 42.93594 -89.29064 4354 ft 255 kts 335°
2026-05-05 23:11 42.95256 -89.29908 3981 ft 254 kts 335°
2026-05-05 23:11 42.96909 -89.30757 3622 ft 252 kts 334°
2026-05-05 23:12 42.98543 -89.31593 3267 ft 249 kts 335°
2026-05-05 23:12 43.00175 -89.32418 2876 ft 251 kts 335°
2026-05-05 23:12 43.01795 -89.33234 2693 ft 241 kts 335°
2026-05-05 23:12 43.03370 -89.34032 2697 ft 242 kts 335°
2026-05-05 23:13 43.05033 -89.34577 2666 ft 252 kts 353°
2026-05-05 23:13 43.06699 -89.34333 2867 ft 207 kts 359°
2026-05-05 23:13 43.07898 -89.34261 2673 ft 147 kts 351°
2026-05-05 23:13 43.08888 -89.34280 2035 ft 141 kts 352°
2026-05-05 23:14 43.09838 -89.34322 1496 ft 130 kts 355°
2026-05-05 23:14 43.10696 -89.34294 1301 ft 119 kts 356°
2026-05-05 23:14 43.11514 -89.34241 1116 ft 115 kts 356°
2026-05-05 23:14 43.12288 -89.34220 989 ft 107 kts 358°
2026-05-05 23:15 43.13000 -89.34186 885 ft 93 kts 359°
2026-05-05 23:15 43.13576 -89.34157 859 ft 74 kts 358°
2026-05-05 23:15 43.14004 -89.34149 868 ft 41 kts
2026-05-05 23:15 43.14245 -89.34138 867 ft 32 kts
2026-05-05 23:16 43.14350 -89.34030 866 ft 18 kts 81°
2026-05-05 23:16 43.14355 -89.33956 864 ft 0 kts 79°